Flag for Vietnam Weather past 2 weeks in Hanoi, Vietnam

Now
100 °F

Passing clouds.


Feels Like: 108 °F
Forecast: 83 / 102 °F
Wind: 9 mph from West

Location: Ha Noi Airport

Current Time: Jul 1, 2015 at 2:08:22 PM

Latest Report: Jul 1, 2015 at 1:30 PM


Visibility: N/A

Pressure: 29.50 "Hg

Humidity: 37%

Dew point: 70 °F

Location of HanoiLocation

Historic Weather in Hanoi — Graph

°F

Hanoi temperature yesterday

Maximum temperature yesterday: 100 °F (at 1:00 PM)
Minimum temperature yesterday: 84 °F (at 5:30 AM)
Average temperature yesterday: 94 °F

Past Weeks' High & Low Weather Summary

 TemperatureHumidityPressure
High100 °F (Jun 28, 3:30 PM)100% (Jun 22, 5:00 AM)29.74 "Hg (Jun 22, 5:00 AM)
Low77 °F (Jun 20, 11:00 AM)35% (Jun 30, 1:30 PM)29.33 "Hg (Jun 24, 4:00 PM)
Average88 °F70%29.58 "Hg
* Reported Jun 16 1:00 PM — Jul 1 1:00 PM, Hanoi, Weather by CustomWeather, © 2015

Note: Actual official high and low records may vary slightly from our data, if they occured in-between our weather recording intervals... More about our weather records

Advertising

Hanoi weather history for previous 24 hours

 ConditionsComfort  
Time TempWeatherWind HumidityBarometerVisibility
1:00 PM
Wed, Jul 1
100 °FPassing clouds.9 mph40%29.53 "HgN/A
12:30 PM99 °FPassing clouds.7 mph37%29.53 "HgN/A
12:00 PM99 °FPassing clouds.9 mph39%29.56 "HgN/A
11:30 AM99 °FSunny.12 mph42%29.56 "Hg10 mi
11:00 AM97 °FPassing clouds.10 mph42%29.56 "HgN/A
10:30 AM97 °FSunny.12 mph47%29.56 "Hg10 mi
10:00 AM97 °FSunny.12 mph42%29.59 "Hg10 mi
9:30 AM95 °FSunny.10 mph47%29.59 "Hg10 mi
9:00 AM93 °FPassing clouds.5 mph59%29.59 "HgN/A
8:30 AM93 °FSunny.3 mph59%29.59 "Hg10 mi
8:00 AM93 °FSunny.3 mph56%29.59 "Hg10 mi
7:30 AM91 °FClear.1 mph59%29.56 "Hg5 mi
7:00 AM90 °FClear.2 mph67%29.56 "Hg4 mi
6:30 AM88 °FClear.1 mph75%29.56 "Hg4 mi
6:00 AM88 °FSunny.2 mph59%29.56 "Hg10 mi
5:30 AM86 °FClear.1 mph79%29.53 "Hg4 mi
4:30 AM86 °FClear.1 mph75%29.53 "Hg4 mi
4:00 AM86 °FClear.2 mph84%29.53 "Hg3 mi
3:30 AM86 °FClear.3 mph84%29.53 "Hg4 mi
3:00 AM86 °FClear.1 mph84%29.53 "Hg3 mi
2:30 AM86 °FClear.2 mph84%29.53 "Hg4 mi
2:00 AM88 °FPassing clouds.5 mph75%29.53 "HgN/A
1:30 AM88 °FClear.3 mph79%29.53 "Hg4 mi
1:00 AM90 °FClear.7 mph71%29.56 "Hg10 mi
12:00 AM91 °FClear.8 mph67%29.56 "Hg6 mi
11:30 PM
Tue, Jun 30
91 °FClear.7 mph67%29.56 "Hg6 mi
11:00 PM91 °FClear.3 mph67%29.56 "Hg6 mi
10:00 PM95 °FClear.7 mph47%29.56 "Hg10 mi
9:30 PM95 °FPassing clouds.6 mph47%29.56 "HgN/A
8:30 PM97 °FClear.6 mph44%29.56 "Hg5 mi
8:00 PM97 °FClear.6 mph44%29.53 "Hg4 mi
7:30 PM99 °FClear.7 mph42%29.53 "Hg10 mi
7:00 PM99 °FClear.3 mph42%29.53 "Hg10 mi
6:30 PM99 °FPassing clouds.7 mph39%29.50 "HgN/A
6:00 PM100 °FSunny.8 mph40%29.50 "Hg10 mi
5:30 PM100 °FPassing clouds.7 mph37%29.50 "HgN/A
5:00 PM100 °FPassing clouds.6 mph37%29.50 "HgN/A
4:30 PM100 °FPassing clouds.7 mph37%29.50 "HgN/A
4:00 PM100 °FPassing clouds.7 mph37%29.50 "HgN/A
3:30 PM100 °FPassing clouds.6 mph37%29.53 "HgN/A
3:00 PM100 °FPassing clouds.6 mph35%29.53 "HgN/A
2:30 PM100 °FPassing clouds.6 mph37%29.53 "HgN/A
2:00 PM100 °FPassing clouds.8 mph37%29.56 "HgN/A
Weather by CustomWeather, © 2015

See weather overviewHow to use our weather pages